Regional Weather Roundup
Issued by NWS

Home | Current Version | Previous Version | Graphics & Text | Print | Product List | Glossary On
Versions: 1 2 3 4 5 6 7 8 9 10 11 12 13 14 15 16 17 18 19 20 21 22 23 24 25 26 27 28 29 30 31 32 33 34 35 36 37 38 39 40 41 42 43 44 45 46 47 48 49 50
000
ASUS43 KLSX 250410
RWRMO

WEATHER SUMMARY FOR MISSOURI
NATIONAL WEATHER SERVICE SPRINGFIELD MO
1100 PM CDT TUE MAY 24 2016

NOTE: "FAIR" INDICATES FEW OR NO CLOUDS BELOW 12,000 FEET WITH NO
       SIGNIFICANT WEATHER AND/OR OBSTRUCTIONS TO VISIBILITY.
       CURRENT SKY AND/OR WEATHER CONDITIONS ARE NOT AVAILABLE FOR
       CHILLICOTHE AND FARMINGTON.

MOZ001>031-035>038-043-044-053-054-250500-
...NORTHERN AND WESTERN MISSOURI...

CITY           SKY/WX    TMP DP  RH WIND       PRES   REMARKS
KANSAS CTY INT CLOUDY    73  67  81 SE12      29.90R
KANSAS C DTWN  CLOUDY    75  68  78 SE9       29.89R
LEE`S SUMMIT   CLEAR     71  65  81 SE12      29.91F
ST JOSEPH      CLOUDY    73  65  75 SE10      29.89R
CHILLICOTHE      N/A     71  65  81 S7        29.94R
KIRKSVILLE     CLEAR     65  64  97 S6        29.96R

$$
MOZ066>068-077>081-088>096-101>105-250500-
...SOUTHWEST MISSOURI...

CITY           SKY/WX    TMP DP  RH WIND       PRES   REMARKS
SPRINGFIELD    CLOUDY    65  61  87 SE16      29.98S
JOPLIN         CLOUDY    72  68  87 SE6       29.90R

$$
MOZ032>034-039>042-045>050-055>058-069>072-250500-
...CENTRAL MISSOURI...

CITY           SKY/WX    TMP DP  RH WIND       PRES   REMARKS
COLUMBIA       CLOUDY    64  62  93 SE10      29.97F
JEFFERSON CITY CLOUDY    64  62  93 SE8       29.97F
ROLLA          CLOUDY    62  60  93 SE8       29.98F
SEDALIA        CLOUDY    66  62  87 SE9       29.96S
WHITEMAN AFB   MOCLDY    66  66  99 SE6       29.93S
WARRENSBURG    CLEAR     66  61  82 E8        29.93S

$$
MOZ051-052-059>065-250500-
...EAST CENTRAL MISSOURI...

CITY           SKY/WX    TMP DP  RH WIND       PRES   REMARKS
ST LOUIS INTL  CLOUDY    70  61  73 S3        30.01F
SPIRIT OF STL  CLOUDY    65  62  90 S3        29.99F
ST CHARLES     PTCLDY    66  62  87 S5        29.99F

$$
MOZ072>076-082>087-097>100-106>115-250500-
...SOUTH CENTRAL AND SOUTHEAST MISSOURI...

CITY           SKY/WX    TMP DP  RH WIND       PRES   REMARKS
CAPE GIRARDEAU CLOUDY    66  63  90 CALM      30.03S
FARMINGTON     CLOUDY    63  61  93 S6        30.04F
POPLAR BLUFF   CLOUDY    67  63  87 SW9       30.02R
WEST PLAINS    CLOUDY    63  60  90 S9        30.05F

$$




USA.gov is the U.S. government's official web portal to all federal, state and local government web resources and services.